Weather History for Kuwait Internationalairport, Kuwait

Change the Weather History Date:

Saturday, March 29, 2014

  Actual Average Record
Temperature  
Mean Temperature 71 °F -  
Max Temperature 84 °F 89 °F - ()
Min Temperature 58 °F 65 °F - ()
Cooling Degree Days 6    
Growing Degree Days 21 (Base 50)    
Moisture  
Dew Point 43 °F    
Average Humidity 32    
Maximum Humidity 57    
Minimum Humidity 11    
Precipitation  
Precipitation 0.00 in 0.02 in - ()
Sea Level Pressure  
Sea Level Pressure 29.91 in    
Wind  
Wind Speed 4 mph ()    
Max Wind Speed 13 mph    
Max Gust Speed -    
Visibility 6.1 miles    
Events Rain , Thunderstorm    
T = Trace of Precipitation, MM = Missing Value Source: Averaged Metar Reports

Daily Weather History Graph

Daily Weather History Graph

Search for Another Location

Airport:

Trip Planner

Search our weather history database for the weather conditions in past years. The results will help you decide how hot, cold, wet, or windy it might be!

Date:

Astronomy

Mar. 29, 2014 Rise Set
Actual Time 5:41 AM AST 6:04 PM AST
Civil Twilight 5:17 AM AST 6:28 PM AST
Nautical Twilight 4:50 AM AST 6:56 PM AST
Astronomical Twilight 4:21 AM AST 7:24 PM AST
Moon 4:28 AM AST (3/29) 4:48 PM AST (3/29)
Length of Visible Light 13h 10m
Length of Day
12h 22m
Waning Crescent, 3% of the Moon is Illuminated
Mar 29
Waning Crescent
Mar 30
New
Apr 7
First Quarter
Apr 15
Full
Apr 22
Last Quarter

Hourly Weather History & Observations

Time (AST) Temp. Dew Point Humidity Pressure Visibility Wind Dir Wind Speed Gust Speed Precip Events Conditions
12:00 AM 64 °F 39 °F 28% 29.95 in 6 mi Calm Calm - -  
12:00 AM 64.4 °F 39.2 °F 40% 29.95 in - Calm Calm - N/A   Clear
1:00 AM 62.6 °F 37.4 °F 39% 29.95 in - WNW 4.6 mph - N/A   Clear
2:00 AM 62.6 °F 35.6 °F 37% 29.92 in - Calm Calm - N/A   Clear
3:00 AM 60 °F 36 °F 28% 29.93 in 6 mi Calm Calm - -  
3:00 AM 60.8 °F 35.6 °F 39% 29.92 in - Calm Calm - N/A   Clear
4:00 AM 64.4 °F 44.6 °F 49% 29.92 in - NNE 3.5 mph - N/A   Clear
5:00 AM 59.0 °F 39.2 °F 48% 29.95 in - Calm Calm - N/A   Clear
6:00 AM 58 °F 41 °F 41% 29.96 in 6 mi North 3.5 mph - -   Clear
6:00 AM 59.0 °F 41.0 °F 51% 29.95 in - North 3.5 mph - N/A   Clear
7:00 AM 66.2 °F 44.6 °F 46% 29.98 in - Calm Calm - N/A   Clear
8:00 AM 77.0 °F 44.6 °F 32% 29.98 in - NE 5.8 mph - N/A   Clear
9:00 AM 80 °F 45 °F 19% 29.98 in 6 mi NNW 4.6 mph - -  
9:00 AM 78.8 °F 44.6 °F 30% 29.98 in - NNW 4.6 mph - N/A   Clear
10:00 AM 82.4 °F 42.8 °F 25% 29.98 in - East 5.8 mph - N/A   Clear
11:00 AM 82.4 °F 35.6 °F 19% 29.95 in - ESE 9.2 mph - N/A   Clear
12:00 PM 84 °F 38 °F 11% 29.94 in 6 mi ESE 9.2 mph - -  
12:00 PM 84.2 °F 37.4 °F 19% 29.95 in - ESE 9.2 mph - N/A   Clear
1:00 PM 84.2 °F 39.2 °F 20% 29.89 in - ESE 11.5 mph - N/A   Clear
2:00 PM 84.2 °F 39.2 °F 20% 29.86 in - ESE 12.7 mph - N/A   Clear
3:00 PM 83 °F 42 °F 14% 29.84 in 6 mi East 9.2 mph - -   Scattered Clouds
3:00 PM 82.4 °F 41.0 °F 23% 29.83 in - East 9.2 mph - N/A   Unknown
4:00 PM 80.6 °F 44.6 °F 28% 29.83 in - ESE 12.7 mph - N/A   Clear
5:00 PM 78.8 °F 51.8 °F 39% 29.83 in 6.2 mi ESE 11.5 mph - N/A   Mostly Cloudy
6:00 PM 77 °F 49 °F 27% 29.83 in 6 mi ESE 11.5 mph - -   Scattered Clouds
6:00 PM 77.0 °F 50.0 °F 39% 29.83 in 6.2 mi ESE 11.5 mph - N/A   Mostly Cloudy
7:00 PM 77.0 °F 46.4 °F 34% 29.86 in 6.2 mi SSE 8.1 mph - N/A   Mostly Cloudy
8:00 PM 77.0 °F 42.8 °F 29% 29.86 in 6.2 mi SE 9.2 mph - N/A   Mostly Cloudy
9:00 PM 76 °F 43 °F 20% 29.86 in 6 mi South 4.6 mph - -   Scattered Clouds
9:00 PM 75.2 °F 42.8 °F 31% - 6.2 mi South 4.6 mph - N/A   Mostly Cloudy
10:00 PM 77.0 °F 44.6 °F 32% 29.83 in 6.2 mi SE 5.8 mph - N/A   Mostly Cloudy
10:30 PM 71.6 °F 55.4 °F 57% 29.86 in 6.2 mi SSE 10.4 mph - N/A Rain , Thunderstorm Light Thunderstorms and Rain
11:00 PM 73.4 °F 53.6 °F 50% 29.83 in 6.2 mi SE 11.5 mph - N/A Rain , Thunderstorm Light Thunderstorms and Rain